User: anonymous   Login
Location: Freemans Gardens
(41.6414°N, 83.6077°W)
Time: 11:53:58
(UTC+00:00)
Language:

Cosmos 1892 - Orbit

View from above orbital plane
View from above orbital plane
View from above satellite
View from above satellite

Ground track
Ground track

The orbit data is extracted from the following two-line orbital elements,

1 18421U 87088A   21018.86402475  .00000654  00000-0  30976-4 0  9999
2 18421  82.4990  60.3234 0015947  42.8604 317.3869 15.17425972817217
Epoch (UTC): 18 January 2021 20:44:11
Eccentricity: 0.0015947
inclination: 82.4990°
perigee height: 502 km
apogee height: 524 km
right ascension of ascending node: 60.3234°
argument of perigee: 42.8604°
revolutions per day: 15.17425972
mean anomaly at epoch: 317.3869°
orbit number at epoch: 81721

The dashed part of the orbit path shows where the satellite is in the earth's shadow,  

DLR